FW9392 Weather Reports


Display with metric or nautical units.
time (UTC)temp
F
wind
direction
speed
MPH
gust
MPH
rain 1hr
in
rain 24hr
in
rain mn
in
humidity
%
barometer
mb
20220927234608 67 82 2.0 8.0 0.00 0.00 0.00 75 1011.1
20220927233050 67 210 1.0 11.0 0.00 0.00 0.00 78 1011.2
20220927231614 66 41 1.0 11.0 0.00 0.00 0.00 80 1011.3
20220927230050 64 236 2.0 9.0 0.00 0.00 0.00 81 1011.2
20220927224553 63 103 0.0 8.0 0.00 0.00 0.00 85 1011.4
20220927223053 61 261 2.0 8.0 0.00 0.00 0.00 90 1011.3
20220927221607 59 114 1.0 7.0 0.00 0.00 0.00 91 1011.2
20220927220115 59 0 2.0 6.0 0.00 0.00 0.00 91 1011.2
20220927214602 58 105 1.0 9.0 0.00 0.00 0.00 92 1011.2
20220927213136 58 74 1.0 7.0 0.00 0.00 0.00 92 1011.4
20220927211626 57 0 0.0 3.0 0.00 0.00 0.00 92 1011.0
20220927210056 58 113 1.0 13.0 0.00 0.00 0.00 92 1011.3
20220927204604 56 215 2.0 9.0 0.00 0.00 0.00 95 1011.0
20220927203120 55 225 0.0 5.0 0.00 0.00 0.00 96 1011.2
20220927201618 54 0 0.0 0.0 0.00 0.00 0.00 96 1010.6
20220927200114 54 0 0.0 0.0 0.00 0.00 0.00 96 1010.7
20220927194617 54 0 0.0 0.0 0.00 0.00 0.00 96 1010.7
20220927193117 53 0 0.0 0.0 0.00 0.00 0.00 96 1010.4
20220927191605 53 0 0.0 0.0 0.00 0.00 0.00 96 1010.7
20220927190054 53 0 0.0 0.0 0.00 0.00 0.00 96 1010.7
20220927184557 52 0 0.0 0.0 0.00 0.00 0.00 96 1011.0
20220927183207 51 0 0.0 0.0 0.00 0.00 0.00 96 1011.2
20220927181707 51 0 0.0 0.0 0.00 0.00 0.00 96 1010.6
20220927181607 51 0 0.0 0.0 0.00 0.00 0.00 96 1010.6
20220927180055 51 0 0.0 0.0 0.00 0.00 0.00 96 1010.3
20220927174553 51 0 0.0 0.0 0.00 0.00 0.00 96 1010.1
20220927173202 51 0 0.0 0.0 0.00 0.00 0.00 96 1009.7
20220927171609 51 0 0.0 0.0 0.00 0.00 0.00 96 1009.7
20220927170208 51 0 0.0 0.0 0.00 0.00 0.00 95 1009.7
20220927164607 52 0 0.0 0.0 0.00 0.00 0.00 95 1010.0
20220927163057 52 0 0.0 0.0 0.00 0.00 0.00 95 1010.1
20220927161610 52 0 0.0 0.0 0.00 0.00 0.00 95 1010.1
20220927160058 52 0 0.0 0.0 0.00 0.00 0.00 95 1010.1
20220927154559 53 0 0.0 0.0 0.00 0.00 0.00 95 1010.1
20220927153139 53 0 0.0 0.0 0.00 0.00 0.00 95 1010.3
20220927151602 53 0 0.0 0.0 0.00 0.00 0.00 95 1010.4
20220927150052 53 0 0.0 0.0 0.00 0.00 0.00 95 1010.6
20220927144559 53 0 0.0 0.0 0.00 0.00 0.00 95 1010.7
20220927143058 54 0 0.0 0.0 0.00 0.00 0.00 95 1010.7
20220927141634 54 0 0.0 0.0 0.00 0.00 0.00 95 1010.8
20220927140059 54 0 0.0 1.0 0.00 0.00 0.00 95 1011.0
20220927134557 54 0 0.0 0.0 0.00 0.00 0.00 95 1011.1
20220927133047 54 0 0.0 0.0 0.00 0.00 0.00 95 1011.1
20220927131559 54 0 0.0 0.0 0.00 0.00 0.00 94 1011.1
20220927130051 55 0 0.0 3.0 0.00 0.00 0.00 94 1011.3
20220927124559 55 0 0.0 0.0 0.00 0.00 0.00 94 1011.4
20220927123051 55 216 0.0 0.0 0.00 0.00 0.00 95 1011.5
20220927121604 55 0 0.0 0.0 0.00 0.00 0.00 95 1011.3
20220927120113 55 0 0.0 0.0 0.00 0.00 0.00 95 1011.6
20220927114555 55 0 0.0 0.0 0.00 0.00 0.00 95 1011.6
20220927113057 55 0 0.0 0.0 0.00 0.00 0.00 95 1012.0
20220927111600 55 0 0.0 0.0 0.00 0.00 0.00 95 1012.0
20220927110053 55 0 0.0 0.0 0.00 0.00 0.00 95 1012.1
20220927104552 55 0 0.0 0.0 0.00 0.00 0.00 94 1012.3
20220927103052 56 0 0.0 0.0 0.00 0.00 0.00 94 1012.3
20220927101612 56 0 0.0 0.0 0.00 0.00 0.00 94 1012.6
20220927100055 56 0 0.0 0.0 0.00 0.00 0.00 94 1012.5
20220927094557 56 0 0.0 0.0 0.00 0.00 0.00 94 1012.4
20220927093109 56 0 0.0 0.0 0.00 0.00 0.00 93 1012.5
20220927091551 56 0 0.0 0.0 0.00 0.00 0.00 93 1012.3
20220927090110 57 0 0.0 0.0 0.00 0.00 0.00 93 1012.2
20220927084611 58 0 0.0 0.0 0.00 0.00 0.00 92 1012.2
20220927083058 58 0 0.0 0.0 0.00 0.00 0.00 92 1012.1
20220927081559 59 0 0.0 0.0 0.00 0.00 0.00 92 1012.1
20220927080055 60 0 0.0 0.0 0.00 0.00 0.00 91 1012.0
20220927074606 60 0 0.0 0.0 0.00 0.00 0.00 90 1012.0
20220927073059 61 0 0.0 0.0 0.00 0.00 0.00 89 1011.9
20220927071554 62 0 0.0 0.0 0.00 0.00 0.00 90 1011.7
20220927070053 63 0 0.0 0.0 0.00 0.00 0.00 90 1011.8
20220927064549 63 0 0.0 0.0 0.00 0.00 0.00 89 1011.5
20220927063106 63 0 0.0 0.0 0.00 0.00 0.00 89 1011.5
20220927061552 63 0 0.0 0.0 0.00 0.00 0.00 88 1011.5
20220927060106 63 0 0.0 0.0 0.00 0.00 0.00 87 1011.4
20220927054546 64 0 0.0 0.0 0.00 0.00 0.00 84 1011.4
20220927053051 65 153 0.0 1.0 0.00 0.00 0.00 81 1011.5
20220927051549 64 0 0.0 1.0 0.00 0.00 0.00 86 1011.5
20220927050051 63 99 0.0 0.0 0.00 0.00 0.00 86 1011.6
20220927044553 62 0 0.0 0.0 0.00 0.00 0.00 89 1011.8
20220927043057 63 0 0.0 0.0 0.00 0.00 0.00 85 1012.1
20220927041637 65 0 0.0 0.0 0.00 0.00 0.00 80 1012.6
20220927040122 67 0 0.0 0.0 0.00 0.00 0.00 76 1012.6
20220927034600 68 0 0.0 0.0 0.00 0.00 0.00 68 1012.9
20220927033129 68 0 0.0 4.0 0.00 0.00 0.00 65 1013.2
20220927031601 69 242 0.0 6.0 0.00 0.00 0.00 63 1013.2
20220927030102 68 247 1.0 7.0 0.00 0.00 0.00 69 1013.4
20220927024602 68 125 1.0 6.0 0.00 0.00 0.00 74 1013.3
20220927023048 67 0 0.0 7.0 0.00 0.00 0.00 75 1013.4
20220927021610 67 0 0.0 7.0 0.00 0.00 0.00 76 1013.5
20220927020127 68 213 0.0 10.0 0.00 0.00 0.00 74 1013.3
20220927014557 68 273 1.0 10.0 0.00 0.00 0.00 75 1013.6
20220927013046 68 126 0.0 2.0 0.00 0.00 0.00 67 1013.8
20220927011552 68 0 0.0 2.0 0.00 0.00 0.00 65 1014.0
20220927010105 66 211 0.0 0.0 0.00 0.00 0.00 71 1014.1
20220927004552 64 0 0.0 0.0 0.00 0.00 0.00 76 1014.1
20220927003053 62 0 0.0 0.0 0.00 0.00 0.00 82 1014.3
20220927001554 61 0 0.0 0.0 0.00 0.00 0.00 91 1014.5
20220927000100 60 0 0.0 0.0 0.00 0.00 0.00 90 1014.6